Time,TemperatureF,DewpointF,PressureIn,WindDirection,WindDirectionDegrees,WindSpeedMPH,WindSpeedGustMPH,Humidity,HourlyPrecipIn,Conditions,Clouds,dailyrainin,SolarRadiationWatts/m^2,SoftwareType,DateUTC
2013-10-04 00:01:00,48.6,47.0,30.09,SE,146,1.0,2.0,94,0.00,,,0.00,0,Wunderground v.1.15,2013-10-04 07:01:00,
2013-10-04 00:06:00,48.5,46.9,30.09,ESE,121,1.0,3.0,94,0.00,,,0.00,0,Wunderground v.1.15,2013-10-04 07:06:00,
2013-10-04 00:11:00,48.3,46.7,30.09,ESE,119,1.0,1.0,94,0.00,,,0.00,0,Wunderground v.1.15,2013-10-04 07:11:00,
2013-10-04 00:16:00,48.3,46.9,30.09,ESE,119,0.0,2.0,95,0.00,,,0.00,0,Wunderground v.1.15,2013-10-04 07:16:00,
2013-10-04 00:21:00,48.2,46.8,30.09,ESE,119,1.0,1.0,95,0.00,,,0.00,0,Wunderground v.1.15,2013-10-04 07:21:00,
2013-10-04 00:26:00,48.2,46.8,30.09,ESE,119,1.0,2.0,95,0.00,,,0.00,0,Wunderground v.1.15,2013-10-04 07:26:00,
2013-10-04 00:31:00,48.3,46.9,30.09,ESE,105,1.0,1.0,95,0.00,,,0.00,0,Wunderground v.1.15,2013-10-04 07:31:00,
2013-10-04 00:36:00,48.1,46.7,30.09,ESE,105,1.0,2.0,95,0.00,,,0.00,0,Wunderground v.1.15,2013-10-04 07:36:00,
2013-10-04 00:40:00,48.1,46.7,30.09,ESE,105,0.0,1.0,95,0.00,,,0.00,0,Wunderground v.1.15,2013-10-04 07:40:00,
2013-10-04 00:45:00,48.1,46.7,30.09,ESE,105,0.0,2.0,95,0.00,,,0.00,0,Wunderground v.1.15,2013-10-04 07:45:00,
2013-10-04 00:50:00,48.2,46.8,30.09,ESE,105,3.0,3.0,95,0.00,,,0.00,0,Wunderground v.1.15,2013-10-04 07:50:00,
2013-10-04 00:55:00,48.2,46.8,30.09,ESE,105,1.0,3.0,95,0.00,,,0.00,0,Wunderground v.1.15,2013-10-04 07:55:00,
2013-10-04 01:00:00,48.1,46.7,30.09,ESE,105,1.0,2.0,95,0.00,,,0.00,0,Wunderground v.1.15,2013-10-04 08:00:00,
2013-10-04 01:05:00,47.9,46.8,30.09,ESE,105,0.0,2.0,96,0.00,,,0.00,0,Wunderground v.1.15,2013-10-04 08:05:00,
2013-10-04 01:10:00,47.7,46.6,30.09,ESE,105,0.0,1.0,96,0.00,,,0.00,0,Wunderground v.1.15,2013-10-04 08:10:00,
2013-10-04 01:15:00,47.5,46.4,30.09,ESE,105,1.0,1.0,96,0.00,,,0.00,0,Wunderground v.1.15,2013-10-04 08:15:00,
2013-10-04 01:20:00,47.4,46.3,30.09,ESE,105,1.0,1.0,96,0.00,,,0.00,0,Wunderground v.1.15,2013-10-04 08:20:00,
2013-10-04 01:25:00,47.3,46.2,30.09,ESE,105,0.0,2.0,96,0.00,,,0.00,0,Wunderground v.1.15,2013-10-04 08:25:00,
2013-10-04 01:30:00,47.3,46.2,30.09,ESE,105,1.0,2.0,96,0.00,,,0.00,0,Wunderground v.1.15,2013-10-04 08:30:00,
2013-10-04 01:35:00,47.3,46.2,30.09,ESE,105,1.0,2.0,96,0.00,,,0.00,0,Wunderground v.1.15,2013-10-04 08:35:00,
2013-10-04 01:40:00,47.3,46.2,30.09,East,87,2.0,3.0,96,0.00,,,0.00,0,Wunderground v.1.15,2013-10-04 08:40:00,
2013-10-04 01:45:00,47.3,46.2,30.09,East,86,1.0,3.0,96,0.00,,,0.00,0,Wunderground v.1.15,2013-10-04 08:45:00,
2013-10-04 01:50:00,47.3,46.2,30.09,East,86,0.0,2.0,96,0.00,,,0.00,0,Wunderground v.1.15,2013-10-04 08:50:00,
2013-10-04 01:55:00,47.2,46.1,30.09,East,86,1.0,2.0,96,0.00,,,0.00,0,Wunderground v.1.15,2013-10-04 08:55:00,
2013-10-04 02:00:00,47.1,46.0,30.09,East,86,1.0,1.0,96,0.00,,,0.00,0,Wunderground v.1.15,2013-10-04 09:00:00,
2013-10-04 02:05:00,47.0,45.9,30.09,East,86,2.0,2.0,96,0.00,,,0.00,0,Wunderground v.1.15,2013-10-04 09:05:00,
2013-10-04 02:10:00,46.9,45.8,30.10,East,86,1.0,1.0,96,0.00,,,0.00,0,Wunderground v.1.15,2013-10-04 09:10:00,
2013-10-04 02:15:00,46.7,45.6,30.10,East,86,0.0,2.0,96,0.00,,,0.00,0,Wunderground v.1.15,2013-10-04 09:15:00,
2013-10-04 02:20:00,46.6,45.5,30.10,East,86,0.0,1.0,96,0.00,,,0.00,0,Wunderground v.1.15,2013-10-04 09:20:00,
2013-10-04 02:25:00,46.5,45.4,30.10,East,86,1.0,1.0,96,0.00,,,0.00,0,Wunderground v.1.15,2013-10-04 09:25:00,
2013-10-04 02:30:00,46.2,45.1,30.10,East,86,1.0,2.0,96,0.00,,,0.00,0,Wunderground v.1.15,2013-10-04 09:30:00,
2013-10-04 02:35:00,46.3,45.2,30.10,East,86,0.0,2.0,96,0.00,,,0.00,0,Wunderground v.1.15,2013-10-04 09:35:00,
2013-10-04 02:40:00,46.2,45.1,30.10,East,86,0.0,1.0,96,0.00,,,0.00,0,Wunderground v.1.15,2013-10-04 09:40:00,
2013-10-04 02:45:00,46.1,45.0,30.10,East,86,0.0,1.0,96,0.00,,,0.00,0,Wunderground v.1.15,2013-10-04 09:45:00,
2013-10-04 02:50:00,46.1,45.0,30.09,East,86,1.0,1.0,96,0.00,,,0.00,0,Wunderground v.1.15,2013-10-04 09:50:00,
2013-10-04 02:55:00,46.2,45.1,30.10,East,86,0.0,1.0,96,0.00,,,0.00,0,Wunderground v.1.15,2013-10-04 09:55:00,
2013-10-04 03:00:00,46.2,45.1,30.10,East,86,0.0,1.0,96,0.00,,,0.00,0,Wunderground v.1.15,2013-10-04 10:00:00,
2013-10-04 03:05:00,46.3,45.5,30.10,East,86,1.0,2.0,97,0.00,,,0.00,0,Wunderground v.1.15,2013-10-04 10:05:00,
2013-10-04 03:10:00,46.4,45.6,30.10,ESE,104,1.0,2.0,97,0.00,,,0.00,0,Wunderground v.1.15,2013-10-04 10:10:00,
2013-10-04 03:15:00,46.5,45.7,30.10,ESE,104,0.0,2.0,97,0.00,,,0.00,0,Wunderground v.1.15,2013-10-04 10:15:00,
2013-10-04 03:20:00,46.5,45.7,30.10,ESE,104,0.0,0.0,97,0.00,,,0.00,0,Wunderground v.1.15,2013-10-04 10:20:00,
2013-10-04 03:25:00,46.5,45.7,30.10,ESE,104,0.0,1.0,97,0.00,,,0.00,0,Wunderground v.1.15,2013-10-04 10:25:00,
2013-10-04 03:30:00,46.1,45.3,30.10,ESE,104,0.0,0.0,97,0.00,,,0.00,0,Wunderground v.1.15,2013-10-04 10:30:00,
2013-10-04 03:35:00,46.1,45.3,30.10,ESE,104,0.0,1.0,97,0.00,,,0.00,0,Wunderground v.1.15,2013-10-04 10:35:00,
2013-10-04 03:40:00,45.8,45.0,30.10,ESE,104,0.0,0.0,97,0.00,,,0.00,0,Wunderground v.1.15,2013-10-04 10:40:00,
2013-10-04 03:45:00,45.6,44.8,30.10,ESE,104,0.0,1.0,97,0.00,,,0.00,0,Wunderground v.1.15,2013-10-04 10:45:00,
2013-10-04 03:50:00,45.4,44.6,30.10,ESE,104,0.0,1.0,97,0.00,,,0.00,0,Wunderground v.1.15,2013-10-04 10:50:00,
2013-10-04 03:55:00,45.4,44.6,30.09,ESE,104,1.0,1.0,97,0.00,,,0.00,0,Wunderground v.1.15,2013-10-04 10:55:00,
2013-10-04 04:00:00,45.4,44.6,30.10,ESE,104,0.0,0.0,97,0.00,,,0.00,0,Wunderground v.1.15,2013-10-04 11:00:00,
2013-10-04 04:05:00,45.3,44.5,30.09,ESE,104,1.0,2.0,97,0.00,,,0.00,0,Wunderground v.1.15,2013-10-04 11:05:00,
2013-10-04 04:10:00,45.3,44.5,30.09,East,98,0.0,1.0,97,0.00,,,0.00,0,Wunderground v.1.15,2013-10-04 11:10:00,
2013-10-04 04:15:00,45.4,44.6,30.09,East,98,0.0,2.0,97,0.00,,,0.00,0,Wunderground v.1.15,2013-10-04 11:15:00,
2013-10-04 04:20:00,45.4,44.6,30.09,East,98,2.0,2.0,97,0.00,,,0.00,0,Wunderground v.1.15,2013-10-04 11:20:00,
2013-10-04 04:25:00,45.4,44.6,30.08,East,98,0.0,2.0,97,0.00,,,0.00,0,Wunderground v.1.15,2013-10-04 11:25:00,
2013-10-04 04:30:00,45.6,44.8,30.09,East,98,0.0,1.0,97,0.00,,,0.00,0,Wunderground v.1.15,2013-10-04 11:30:00,
2013-10-04 04:35:00,45.8,45.0,30.09,East,98,0.0,1.0,97,0.00,,,0.00,0,Wunderground v.1.15,2013-10-04 11:35:00,
2013-10-04 04:40:00,46.0,45.2,30.09,East,98,0.0,0.0,97,0.00,,,0.00,0,Wunderground v.1.15,2013-10-04 11:40:00,
2013-10-04 04:45:00,46.2,45.4,30.09,East,97,1.0,2.0,97,0.00,,,0.00,0,Wunderground v.1.15,2013-10-04 11:45:00,
2013-10-04 04:50:00,46.2,45.4,30.09,East,98,0.0,1.0,97,0.00,,,0.00,0,Wunderground v.1.15,2013-10-04 11:50:00,
2013-10-04 04:55:00,46.2,45.4,30.09,East,97,0.0,1.0,97,0.00,,,0.00,0,Wunderground v.1.15,2013-10-04 11:55:00,
2013-10-04 05:00:00,46.1,45.3,30.09,East,98,0.0,1.0,97,0.00,,,0.00,0,Wunderground v.1.15,2013-10-04 12:00:00,
2013-10-04 05:05:00,46.0,45.2,30.09,East,97,0.0,1.0,97,0.00,,,0.00,0,Wunderground v.1.15,2013-10-04 12:05:00,
2013-10-04 05:10:00,46.1,45.3,30.09,East,98,1.0,1.0,97,0.00,,,0.00,0,Wunderground v.1.15,2013-10-04 12:10:00,
2013-10-04 05:15:00,46.1,45.3,30.09,East,97,1.0,2.0,97,0.00,,,0.00,0,Wunderground v.1.15,2013-10-04 12:15:00,
2013-10-04 05:20:00,46.1,45.3,30.09,East,97,0.0,1.0,97,0.00,,,0.00,0,Wunderground v.1.15,2013-10-04 12:20:00,
2013-10-04 05:25:00,46.1,45.3,30.09,East,98,0.0,2.0,97,0.00,,,0.00,0,Wunderground v.1.15,2013-10-04 12:25:00,
2013-10-04 05:30:00,46.1,45.3,30.09,East,97,1.0,1.0,97,0.00,,,0.00,0,Wunderground v.1.15,2013-10-04 12:30:00,
2013-10-04 05:35:00,46.0,45.2,30.09,East,97,0.0,1.0,97,0.00,,,0.00,0,Wunderground v.1.15,2013-10-04 12:35:00,
2013-10-04 05:40:00,45.9,45.1,30.10,East,97,0.0,1.0,97,0.00,,,0.00,0,Wunderground v.1.15,2013-10-04 12:40:00,
2013-10-04 05:45:00,45.9,45.1,30.09,East,97,1.0,1.0,97,0.00,,,0.00,0,Wunderground v.1.15,2013-10-04 12:45:00,
2013-10-04 05:50:00,45.9,45.1,30.09,East,98,1.0,1.0,97,0.00,,,0.00,0,Wunderground v.1.15,2013-10-04 12:50:00,
2013-10-04 05:55:00,45.8,45.0,30.09,East,97,1.0,2.0,97,0.00,,,0.00,0,Wunderground v.1.15,2013-10-04 12:55:00,
2013-10-04 06:00:00,45.8,45.0,30.09,East,97,0.0,0.0,97,0.00,,,0.00,0,Wunderground v.1.15,2013-10-04 13:00:00,
2013-10-04 06:05:00,45.9,45.1,30.09,East,97,1.0,1.0,97,0.00,,,0.00,0,Wunderground v.1.15,2013-10-04 13:05:00,
2013-10-04 06:10:00,45.9,45.1,30.10,East,97,1.0,1.0,97,0.00,,,0.00,0,Wunderground v.1.15,2013-10-04 13:10:00,
2013-10-04 06:15:00,46.0,45.2,30.10,East,97,1.0,1.0,97,0.00,,,0.00,0,Wunderground v.1.15,2013-10-04 13:15:00,
2013-10-04 06:20:00,46.0,45.2,30.10,East,97,1.0,1.0,97,0.00,,,0.00,0,Wunderground v.1.15,2013-10-04 13:20:00,
2013-10-04 06:25:00,46.1,45.3,30.10,East,97,0.0,1.0,97,0.00,,,0.00,0,Wunderground v.1.15,2013-10-04 13:25:00,
2013-10-04 06:30:00,46.1,45.3,30.10,East,97,0.0,0.0,97,0.00,,,0.00,0,Wunderground v.1.15,2013-10-04 13:30:00,
2013-10-04 06:35:00,46.1,45.3,30.10,East,97,0.0,2.0,97,0.00,,,0.00,0,Wunderground v.1.15,2013-10-04 13:35:00,
2013-10-04 06:40:00,46.1,45.3,30.09,East,98,0.0,0.0,97,0.00,,,0.00,0,Wunderground v.1.15,2013-10-04 13:40:00,
2013-10-04 06:45:00,46.2,45.4,30.09,East,98,0.0,1.0,97,0.00,,,0.00,0,Wunderground v.1.15,2013-10-04 13:45:00,
2013-10-04 06:50:00,46.3,45.5,30.10,East,97,0.0,0.0,97,0.00,,,0.00,0,Wunderground v.1.15,2013-10-04 13:50:00,
2013-10-04 06:55:00,46.2,45.4,30.10,East,97,1.0,2.0,97,0.00,,,0.00,0,Wunderground v.1.15,2013-10-04 13:55:00,
2013-10-04 07:00:00,46.1,45.3,30.10,ESE,105,0.0,1.0,97,0.00,,,0.00,0,Wunderground v.1.15,2013-10-04 14:00:00,
2013-10-04 07:05:00,46.2,45.4,30.10,ESE,105,0.0,1.0,97,0.00,,,0.00,0,Wunderground v.1.15,2013-10-04 14:05:00,
2013-10-04 07:10:00,46.1,45.3,30.10,ESE,105,1.0,1.0,97,0.00,,,0.00,0,Wunderground v.1.15,2013-10-04 14:10:00,
2013-10-04 07:15:00,45.9,45.1,30.10,ESE,105,2.0,2.0,97,0.00,,,0.00,0,Wunderground v.1.15,2013-10-04 14:15:00,
2013-10-04 07:20:00,45.9,45.1,30.10,ESE,105,0.0,1.0,97,0.00,,,0.00,5,Wunderground v.1.15,2013-10-04 14:20:00,
2013-10-04 07:25:00,45.8,45.0,30.10,ESE,105,0.0,1.0,97,0.00,,,0.00,11,Wunderground v.1.15,2013-10-04 14:25:00,
2013-10-04 07:30:00,45.7,44.9,30.10,ESE,105,1.0,1.0,97,0.00,,,0.00,14,Wunderground v.1.15,2013-10-04 14:30:00,
2013-10-04 07:35:00,45.7,44.9,30.10,ESE,105,0.0,1.0,97,0.00,,,0.00,16,Wunderground v.1.15,2013-10-04 14:35:00,
2013-10-04 07:40:00,45.6,44.8,30.11,ESE,105,1.0,2.0,97,0.00,,,0.00,21,Wunderground v.1.15,2013-10-04 14:40:00,
2013-10-04 07:45:00,45.6,44.8,30.11,ESE,105,1.0,2.0,97,0.00,,,0.00,25,Wunderground v.1.15,2013-10-04 14:45:00,
2013-10-04 07:50:00,45.6,44.8,30.11,ESE,105,0.0,1.0,97,0.00,,,0.00,26,Wunderground v.1.15,2013-10-04 14:50:00,
2013-10-04 07:55:00,45.8,45.0,30.11,ESE,105,1.0,2.0,97,0.00,,,0.00,32,Wunderground v.1.15,2013-10-04 14:55:00,
2013-10-04 08:00:00,45.9,45.1,30.11,ESE,105,0.0,1.0,97,0.00,,,0.00,39,Wunderground v.1.15,2013-10-04 15:00:00,
2013-10-04 08:05:00,45.9,45.1,30.11,ESE,105,1.0,2.0,97,0.00,,,0.00,42,Wunderground v.1.15,2013-10-04 15:05:00,
2013-10-04 08:10:00,45.8,45.0,30.11,ESE,105,0.0,1.0,97,0.00,,,0.00,54,Wunderground v.1.15,2013-10-04 15:10:00,
2013-10-04 08:15:00,45.6,44.8,30.11,ENE,72,0.0,3.0,97,0.00,,,0.00,54,Wunderground v.1.15,2013-10-04 15:15:00,
2013-10-04 08:17:00,45.8,45.0,30.11,ENE,72,1.0,3.0,97,0.00,,,0.00,56,Wunderground v.1.15,2013-10-04 15:17:00,
2013-10-04 08:22:00,46.0,45.2,30.10,East,92,1.0,2.0,97,0.00,,,0.00,65,Wunderground v.1.15,2013-10-04 15:22:00,
2013-10-04 08:27:00,45.9,45.1,30.10,East,92,1.0,2.0,97,0.00,,,0.00,56,Wunderground v.1.15,2013-10-04 15:27:00,
2013-10-04 08:32:00,46.1,45.3,30.10,East,92,0.0,1.0,97,0.00,,,0.00,60,Wunderground v.1.15,2013-10-04 15:32:00,
2013-10-04 08:37:00,46.4,45.6,30.10,East,92,0.0,2.0,97,0.00,,,0.00,53,Wunderground v.1.15,2013-10-04 15:37:00,
2013-10-04 08:42:00,46.4,45.6,30.10,East,92,2.0,2.0,97,0.00,,,0.00,51,Wunderground v.1.15,2013-10-04 15:42:00,
2013-10-04 08:47:00,46.2,45.4,30.10,East,92,0.0,2.0,97,0.00,,,0.00,62,Wunderground v.1.15,2013-10-04 15:47:00,
2013-10-04 08:52:00,46.2,45.4,30.10,East,93,1.0,3.0,97,0.00,,,0.00,70,Wunderground v.1.15,2013-10-04 15:52:00,
2013-10-04 08:57:00,46.3,45.5,30.10,East,93,0.0,3.0,97,0.00,,,0.00,72,Wunderground v.1.15,2013-10-04 15:57:00,
2013-10-04 09:02:00,46.3,45.5,30.10,East,93,0.0,1.0,97,0.00,,,0.00,90,Wunderground v.1.15,2013-10-04 16:02:00,
2013-10-04 09:07:00,46.2,45.4,30.10,ESE,114,1.0,3.0,97,0.00,,,0.00,84,Wunderground v.1.15,2013-10-04 16:07:00,
2013-10-04 09:12:00,46.2,45.4,30.11,ESE,103,2.0,3.0,97,0.00,,,0.00,74,Wunderground v.1.15,2013-10-04 16:12:00,
2013-10-04 09:17:00,45.7,44.6,30.11,ESE,103,0.0,3.0,96,0.00,,,0.00,67,Wunderground v.1.15,2013-10-04 16:17:00,
2013-10-04 09:22:00,45.7,44.9,30.11,ESE,103,1.0,2.0,97,0.00,,,0.00,84,Wunderground v.1.15,2013-10-04 16:22:00,
2013-10-04 09:27:00,45.8,45.0,30.11,East,96,0.0,3.0,97,0.00,,,0.00,105,Wunderground v.1.15,2013-10-04 16:27:00,
2013-10-04 09:32:00,46.0,45.2,30.11,East,96,1.0,2.0,97,0.00,,,0.00,121,Wunderground v.1.15,2013-10-04 16:32:00,
2013-10-04 09:37:00,46.2,45.4,30.10,East,96,2.0,2.0,97,0.00,,,0.00,114,Wunderground v.1.15,2013-10-04 16:37:00,
2013-10-04 09:42:00,46.3,45.5,30.11,East,96,1.0,2.0,97,0.00,,,0.00,105,Wunderground v.1.15,2013-10-04 16:42:00,
2013-10-04 09:47:00,46.7,45.9,30.11,East,96,1.0,2.0,97,0.00,,,0.00,116,Wunderground v.1.15,2013-10-04 16:47:00,
2013-10-04 09:52:00,46.8,46.0,30.11,East,96,0.0,1.0,97,0.00,,,0.00,132,Wunderground v.1.15,2013-10-04 16:52:00,
2013-10-04 09:57:00,47.0,46.2,30.11,East,96,1.0,2.0,97,0.00,,,0.00,137,Wunderground v.1.15,2013-10-04 16:57:00,
2013-10-04 10:02:00,46.9,45.8,30.11,East,96,1.0,2.0,96,0.00,,,0.00,153,Wunderground v.1.15,2013-10-04 17:02:00,
2013-10-04 10:07:00,46.9,45.8,30.11,East,96,1.0,2.0,96,0.00,,,0.00,158,Wunderground v.1.15,2013-10-04 17:07:00,
2013-10-04 10:12:00,47.3,46.2,30.11,East,83,2.0,3.0,96,0.00,,,0.00,338,Wunderground v.1.15,2013-10-04 17:12:00,
2013-10-04 10:17:00,47.8,46.7,30.10,NNE,17,1.0,4.0,96,0.00,,,0.00,338,Wunderground v.1.15,2013-10-04 17:17:00,
2013-10-04 10:22:00,48.5,46.9,30.10,NNE,20,1.0,3.0,94,0.00,,,0.00,466,Wunderground v.1.15,2013-10-04 17:22:00,
2013-10-04 10:27:00,48.7,47.1,30.10,NNE,31,1.0,3.0,94,0.00,,,0.00,411,Wunderground v.1.15,2013-10-04 17:27:00,
2013-10-04 10:32:00,49.1,47.4,30.10,NNE,31,1.0,2.0,94,0.00,,,0.00,193,Wunderground v.1.15,2013-10-04 17:32:00,
2013-10-04 10:36:00,48.8,46.6,30.11,NNE,31,1.0,2.0,92,0.00,,,0.00,257,Wunderground v.1.15,2013-10-04 17:36:00,
2013-10-04 11:01:00,50.9,47.8,30.10,SE,144,2.0,3.0,89,0.00,,,0.00,475,Wunderground v.1.15,2013-10-04 18:01:00,
2013-10-04 11:06:00,50.9,47.5,30.10,SE,131,1.0,4.0,88,0.00,,,0.00,483,Wunderground v.1.15,2013-10-04 18:06:00,
2013-10-04 11:11:00,51.1,48.0,30.10,SE,131,1.0,2.0,89,0.00,,,0.00,515,Wunderground v.1.15,2013-10-04 18:11:00,
2013-10-04 11:16:00,51.6,47.9,30.10,SE,131,1.0,2.0,87,0.00,,,0.00,515,Wunderground v.1.15,2013-10-04 18:16:00,
2013-10-04 11:21:00,52.0,48.3,30.09,SE,131,2.0,3.0,87,0.00,,,0.00,524,Wunderground v.1.15,2013-10-04 18:21:00,
2013-10-04 11:26:00,52.6,48.5,30.09,SE,131,1.0,3.0,86,0.00,,,0.00,527,Wunderground v.1.15,2013-10-04 18:26:00,
2013-10-04 11:31:00,53.1,48.4,30.09,SE,131,2.0,2.0,84,0.00,,,0.00,543,Wunderground v.1.15,2013-10-04 18:31:00,
2013-10-04 11:36:00,53.5,48.1,30.09,SSE,168,2.0,4.0,82,0.00,,,0.00,554,Wunderground v.1.15,2013-10-04 18:36:00,
2013-10-04 11:41:00,54.0,48.6,30.09,ESE,115,1.0,2.0,82,0.00,,,0.00,527,Wunderground v.1.15,2013-10-04 18:41:00,
2013-10-04 11:46:00,54.3,49.2,30.09,ESE,115,1.0,3.0,83,0.00,,,0.00,561,Wunderground v.1.15,2013-10-04 18:46:00,
2013-10-04 11:51:00,54.7,49.0,30.09,ESE,115,2.0,3.0,81,0.00,,,0.00,568,Wunderground v.1.15,2013-10-04 18:51:00,
2013-10-04 11:56:00,54.5,48.8,30.09,SE,142,0.0,4.0,81,0.00,,,0.00,534,Wunderground v.1.15,2013-10-04 18:56:00,
2013-10-04 12:01:00,54.3,48.6,30.08,SE,146,1.0,4.0,81,0.00,,,0.00,520,Wunderground v.1.15,2013-10-04 19:01:00,
2013-10-04 12:06:00,54.2,48.8,30.08,SE,146,1.0,4.0,82,0.00,,,0.00,508,Wunderground v.1.15,2013-10-04 19:06:00,
2013-10-04 12:07:00,54.2,49.1,30.08,SE,146,1.0,4.0,83,0.00,,,0.00,508,Wunderground v.1.15,2013-10-04 19:07:00,
2013-10-04 12:12:00,54.6,49.2,30.08,SE,146,1.0,1.0,82,0.00,,,0.00,596,Wunderground v.1.15,2013-10-04 19:12:00,
2013-10-04 12:17:00,54.6,49.2,30.08,SSE,150,3.0,5.0,82,0.00,,,0.00,570,Wunderground v.1.15,2013-10-04 19:17:00,
2013-10-04 12:22:00,54.6,48.6,30.08,ESE,119,2.0,4.0,80,0.00,,,0.00,548,Wunderground v.1.15,2013-10-04 19:22:00,
2013-10-04 12:27:00,55.3,48.9,30.08,ESE,119,1.0,4.0,79,0.00,,,0.00,626,Wunderground v.1.15,2013-10-04 19:27:00,
2013-10-04 12:32:00,55.1,48.7,30.08,ESE,119,1.0,3.0,79,0.00,,,0.00,592,Wunderground v.1.15,2013-10-04 19:32:00,
2013-10-04 12:37:00,56.2,48.7,30.08,ESE,119,1.0,3.0,76,0.00,,,0.00,529,Wunderground v.1.15,2013-10-04 19:37:00,
2013-10-04 12:42:00,56.4,48.2,30.08,SE,133,1.0,2.0,74,0.00,,,0.00,508,Wunderground v.1.15,2013-10-04 19:42:00,
2013-10-04 12:47:00,56.9,48.3,30.08,South,184,2.0,3.0,73,0.00,,,0.00,596,Wunderground v.1.15,2013-10-04 19:47:00,
2013-10-04 12:52:00,57.2,48.6,30.08,West,259,3.0,5.0,73,0.00,,,0.00,578,Wunderground v.1.15,2013-10-04 19:52:00,
2013-10-04 12:57:00,56.8,48.2,30.08,WSW,252,1.0,5.0,73,0.00,,,0.00,589,Wunderground v.1.15,2013-10-04 19:57:00,
2013-10-04 13:02:00,57.3,48.7,30.08,WSW,248,3.0,5.0,73,0.00,,,0.00,529,Wunderground v.1.15,2013-10-04 20:02:00,
2013-10-04 13:06:00,58.0,48.6,30.08,West,263,2.0,5.0,71,0.00,,,0.00,545,Wunderground v.1.15,2013-10-04 20:06:00,
2013-10-04 13:11:00,57.8,48.5,30.08,West,263,3.0,6.0,71,0.00,,,0.00,527,Wunderground v.1.15,2013-10-04 20:11:00,
2013-10-04 13:16:00,57.5,48.2,30.08,SW,228,3.0,6.0,71,0.00,,,0.00,526,Wunderground v.1.15,2013-10-04 20:16:00,
2013-10-04 13:21:00,57.4,48.1,30.07,SW,225,2.0,3.0,71,0.00,,,0.00,594,Wunderground v.1.15,2013-10-04 20:21:00,
2013-10-04 13:26:00,57.8,48.1,30.07,SW,232,1.0,4.0,70,0.00,,,0.00,540,Wunderground v.1.15,2013-10-04 20:26:00,
2013-10-04 13:31:00,58.1,48.0,30.06,SW,236,2.0,3.0,69,0.00,,,0.00,540,Wunderground v.1.15,2013-10-04 20:31:00,
2013-10-04 13:36:00,57.7,48.0,30.06,SW,236,1.0,3.0,70,0.00,,,0.00,601,Wunderground v.1.15,2013-10-04 20:36:00,
2013-10-04 13:41:00,58.5,48.0,30.05,SW,236,2.0,3.0,68,0.00,,,0.00,605,Wunderground v.1.15,2013-10-04 20:41:00,
2013-10-04 13:46:00,58.9,46.7,30.05,SW,236,2.0,3.0,64,0.00,,,0.00,506,Wunderground v.1.15,2013-10-04 20:46:00,
2013-10-04 13:51:00,59.3,47.5,30.05,SW,228,2.0,3.0,65,0.00,,,0.00,584,Wunderground v.1.15,2013-10-04 20:51:00,
2013-10-04 13:56:00,60.0,48.2,30.05,WSW,252,2.0,5.0,65,0.00,,,0.00,587,Wunderground v.1.15,2013-10-04 20:56:00,
2013-10-04 14:01:00,59.7,47.1,30.04,SW,231,1.0,3.0,63,0.00,,,0.00,548,Wunderground v.1.15,2013-10-04 21:01:00,
2013-10-04 14:06:00,60.0,43.3,30.04,SW,232,1.0,4.0,54,0.00,,,0.00,564,Wunderground v.1.15,2013-10-04 21:06:00,
2013-10-04 14:11:00,60.4,44.6,30.03,SW,214,1.0,3.0,56,0.00,,,0.00,496,Wunderground v.1.15,2013-10-04 21:11:00,
2013-10-04 14:16:00,60.0,44.7,30.03,SW,219,0.0,3.0,57,0.00,,,0.00,464,Wunderground v.1.15,2013-10-04 21:16:00,
2013-10-04 14:21:00,60.4,45.5,30.03,South,187,1.0,3.0,58,0.00,,,0.00,603,Wunderground v.1.15,2013-10-04 21:21:00,
2013-10-04 14:26:00,60.1,45.3,30.03,South,186,0.0,4.0,58,0.00,,,0.00,550,Wunderground v.1.15,2013-10-04 21:26:00,
2013-10-04 14:31:00,61.4,46.0,30.03,SSW,211,2.0,3.0,57,0.00,,,0.00,503,Wunderground v.1.15,2013-10-04 21:31:00,
2013-10-04 14:36:00,62.0,45.6,30.03,SW,234,2.0,4.0,55,0.00,,,0.00,490,Wunderground v.1.15,2013-10-04 21:36:00,
2013-10-04 14:41:00,61.4,44.1,30.03,WSW,242,4.0,4.0,53,0.00,,,0.00,471,Wunderground v.1.15,2013-10-04 21:41:00,
2013-10-04 14:46:00,61.1,44.8,30.02,WSW,257,2.0,4.0,55,0.00,,,0.00,403,Wunderground v.1.15,2013-10-04 21:46:00,
2013-10-04 14:51:00,60.8,45.0,30.03,SW,231,2.0,4.0,56,0.00,,,0.00,376,Wunderground v.1.15,2013-10-04 21:51:00,
2013-10-04 14:56:00,60.9,43.1,30.02,West,265,2.0,5.0,52,0.00,,,0.00,329,Wunderground v.1.15,2013-10-04 21:56:00,
2013-10-04 15:01:00,60.9,45.1,30.02,West,261,1.0,2.0,56,0.00,,,0.00,320,Wunderground v.1.15,2013-10-04 22:01:00,
2013-10-04 15:06:00,61.0,45.7,30.02,WSW,257,1.0,4.0,57,0.00,,,0.00,404,Wunderground v.1.15,2013-10-04 22:06:00,
2013-10-04 15:11:00,61.3,44.5,30.02,SSW,207,2.0,4.0,54,0.00,,,0.00,397,Wunderground v.1.15,2013-10-04 22:11:00,
2013-10-04 15:16:00,61.6,44.8,30.02,SSW,200,2.0,5.0,54,0.00,,,0.00,378,Wunderground v.1.15,2013-10-04 22:16:00,
2013-10-04 15:21:00,61.3,44.5,30.02,South,180,1.0,3.0,54,0.00,,,0.00,378,Wunderground v.1.15,2013-10-04 22:21:00,
2013-10-04 15:26:00,61.8,44.5,30.03,South,186,2.0,5.0,53,0.00,,,0.00,301,Wunderground v.1.15,2013-10-04 22:26:00,
2013-10-04 15:31:00,61.9,45.1,30.02,South,186,1.0,2.0,54,0.00,,,0.00,309,Wunderground v.1.15,2013-10-04 22:31:00,
2013-10-04 15:36:00,61.9,44.6,30.02,SSW,211,2.0,4.0,53,0.00,,,0.00,350,Wunderground v.1.15,2013-10-04 22:36:00,
2013-10-04 15:41:00,62.0,44.7,30.02,SSW,212,2.0,4.0,53,0.00,,,0.00,295,Wunderground v.1.15,2013-10-04 22:41:00,
2013-10-04 15:46:00,61.7,43.9,30.02,SSW,213,4.0,4.0,52,0.00,,,0.00,346,Wunderground v.1.15,2013-10-04 22:46:00,
2013-10-04 15:51:00,62.3,43.9,30.02,SSW,196,0.0,2.0,51,0.00,,,0.00,367,Wunderground v.1.15,2013-10-04 22:51:00,
2013-10-04 15:56:00,62.2,43.8,30.02,South,173,3.0,5.0,51,0.00,,,0.00,309,Wunderground v.1.15,2013-10-04 22:56:00,
2013-10-04 16:01:00,61.9,43.6,30.02,SW,217,3.0,4.0,51,0.00,,,0.00,323,Wunderground v.1.15,2013-10-04 23:01:00,
2013-10-04 16:06:00,61.9,43.0,30.02,South,190,1.0,4.0,50,0.00,,,0.00,318,Wunderground v.1.15,2013-10-04 23:06:00,
2013-10-04 16:11:00,62.5,43.6,30.02,SSW,213,2.0,3.0,50,0.00,,,0.00,301,Wunderground v.1.15,2013-10-04 23:11:00,
2013-10-04 16:16:00,62.4,43.0,30.02,South,184,2.0,3.0,49,0.00,,,0.00,264,Wunderground v.1.15,2013-10-04 23:16:00,
2013-10-04 16:21:00,62.4,41.9,30.02,SW,214,1.0,2.0,47,0.00,,,0.00,258,Wunderground v.1.15,2013-10-04 23:21:00,
2013-10-04 16:26:00,62.6,41.5,30.02,SW,224,1.0,4.0,46,0.00,,,0.00,216,Wunderground v.1.15,2013-10-04 23:26:00,
2013-10-04 16:31:00,62.7,41.6,30.02,SW,228,1.0,3.0,46,0.00,,,0.00,216,Wunderground v.1.15,2013-10-04 23:31:00,
2013-10-04 16:36:00,62.7,41.0,30.02,SW,228,1.0,3.0,45,0.00,,,0.00,206,Wunderground v.1.15,2013-10-04 23:36:00,
2013-10-04 16:41:00,62.3,42.3,30.01,SSW,193,2.0,3.0,48,0.00,,,0.00,200,Wunderground v.1.15,2013-10-04 23:41:00,
2013-10-04 16:46:00,62.1,41.6,30.01,SSW,196,2.0,3.0,47,0.00,,,0.00,206,Wunderground v.1.15,2013-10-04 23:46:00,
2013-10-04 16:51:00,62.2,42.8,30.02,South,186,3.0,4.0,49,0.00,,,0.00,214,Wunderground v.1.15,2013-10-04 23:51:00,
2013-10-04 16:56:00,62.0,42.6,30.01,South,186,2.0,4.0,49,0.00,,,0.00,183,Wunderground v.1.15,2013-10-04 23:56:00,
2013-10-04 17:01:00,62.1,43.2,30.01,South,186,2.0,2.0,50,0.00,,,0.00,221,Wunderground v.1.15,2013-10-05 00:01:00,
2013-10-04 17:06:00,62.4,43.5,30.01,South,186,1.0,2.0,50,0.00,,,0.00,192,Wunderground v.1.15,2013-10-05 00:06:00,
2013-10-04 17:11:00,62.6,43.2,30.01,South,186,1.0,2.0,49,0.00,,,0.00,185,Wunderground v.1.15,2013-10-05 00:11:00,
2013-10-04 17:16:00,62.6,42.6,30.01,South,186,1.0,4.0,48,0.00,,,0.00,190,Wunderground v.1.15,2013-10-05 00:16:00,
2013-10-04 17:21:00,62.7,43.3,30.01,South,186,2.0,2.0,49,0.00,,,0.00,162,Wunderground v.1.15,2013-10-05 00:21:00,
2013-10-04 17:26:00,62.5,43.1,30.01,South,186,1.0,3.0,49,0.00,,,0.00,169,Wunderground v.1.15,2013-10-05 00:26:00,
2013-10-04 17:31:00,62.6,42.1,30.01,South,186,0.0,2.0,47,0.00,,,0.00,135,Wunderground v.1.15,2013-10-05 00:31:00,
2013-10-04 17:36:00,62.6,43.2,30.01,South,186,1.0,3.0,49,0.00,,,0.00,125,Wunderground v.1.15,2013-10-05 00:36:00,
2013-10-04 17:41:00,62.5,45.1,30.01,South,186,1.0,2.0,53,0.00,,,0.00,100,Wunderground v.1.15,2013-10-05 00:41:00,
2013-10-04 17:46:00,61.7,46.3,30.01,South,186,0.0,2.0,57,0.00,,,0.00,76,Wunderground v.1.15,2013-10-05 00:46:00,
2013-10-04 17:51:00,61.3,46.4,30.01,South,186,2.0,2.0,58,0.00,,,0.00,44,Wunderground v.1.15,2013-10-05 00:51:00,
2013-10-04 17:56:00,60.7,46.3,30.01,South,186,0.0,2.0,59,0.00,,,0.00,30,Wunderground v.1.15,2013-10-05 00:56:00,
2013-10-04 18:01:00,60.4,46.4,30.01,South,186,1.0,1.0,60,0.00,,,0.00,32,Wunderground v.1.15,2013-10-05 01:01:00,
2013-10-04 18:06:00,60.1,46.6,30.01,South,186,0.0,2.0,61,0.00,,,0.00,30,Wunderground v.1.15,2013-10-05 01:06:00,
2013-10-04 18:11:00,59.7,46.7,30.01,South,186,1.0,2.0,62,0.00,,,0.00,21,Wunderground v.1.15,2013-10-05 01:11:00,
2013-10-04 18:16:00,59.3,45.4,30.01,South,186,0.0,2.0,60,0.00,,,0.00,18,Wunderground v.1.15,2013-10-05 01:16:00,
2013-10-04 18:21:00,58.8,45.8,30.01,South,186,1.0,1.0,62,0.00,,,0.00,14,Wunderground v.1.15,2013-10-05 01:21:00,
2013-10-04 18:26:00,58.6,45.2,30.01,South,186,1.0,2.0,61,0.00,,,0.00,11,Wunderground v.1.15,2013-10-05 01:26:00,
2013-10-04 18:31:00,58.3,44.9,30.01,South,186,1.0,1.0,61,0.00,,,0.00,7,Wunderground v.1.15,2013-10-05 01:31:00,
2013-10-04 18:36:00,58.0,44.2,30.01,South,186,1.0,1.0,60,0.00,,,0.00,0,Wunderground v.1.15,2013-10-05 01:36:00,
2013-10-04 18:41:00,58.1,43.8,30.01,South,186,1.0,2.0,59,0.00,,,0.00,0,Wunderground v.1.15,2013-10-05 01:41:00,
2013-10-04 18:46:00,57.9,43.7,30.01,South,186,0.0,2.0,59,0.00,,,0.00,0,Wunderground v.1.15,2013-10-05 01:46:00,
2013-10-04 18:51:00,57.8,44.0,30.01,South,186,0.0,1.0,60,0.00,,,0.00,0,Wunderground v.1.15,2013-10-05 01:51:00,
2013-10-04 18:56:00,57.5,44.6,30.01,South,186,1.0,2.0,62,0.00,,,0.00,0,Wunderground v.1.15,2013-10-05 01:56:00,
2013-10-04 19:01:00,57.2,44.3,30.01,South,186,0.0,1.0,62,0.00,,,0.00,0,Wunderground v.1.15,2013-10-05 02:01:00,
2013-10-04 19:06:00,57.0,44.9,30.01,South,186,0.0,1.0,64,0.00,,,0.00,0,Wunderground v.1.15,2013-10-05 02:06:00,
2013-10-04 19:11:00,56.8,44.3,30.00,South,186,0.0,1.0,63,0.00,,,0.00,0,Wunderground v.1.15,2013-10-05 02:11:00,
2013-10-04 19:16:00,56.9,44.4,30.00,South,186,0.0,1.0,63,0.00,,,0.00,0,Wunderground v.1.15,2013-10-05 02:16:00,
2013-10-04 19:21:00,56.8,44.3,30.00,South,186,0.0,0.0,63,0.00,,,0.00,0,Wunderground v.1.15,2013-10-05 02:21:00,
2013-10-04 19:26:00,57.0,44.5,30.00,South,186,0.0,1.0,63,0.00,,,0.00,0,Wunderground v.1.15,2013-10-05 02:26:00,
2013-10-04 19:31:00,57.0,44.9,30.00,South,186,0.0,0.0,64,0.00,,,0.00,0,Wunderground v.1.15,2013-10-05 02:31:00,
2013-10-04 19:36:00,56.6,45.0,30.00,South,186,0.0,0.0,65,0.00,,,0.00,0,Wunderground v.1.15,2013-10-05 02:36:00,
2013-10-04 19:41:00,56.6,45.0,30.00,South,186,0.0,0.0,65,0.00,,,0.00,0,Wunderground v.1.15,2013-10-05 02:41:00,
2013-10-04 19:46:00,56.3,44.7,30.00,South,186,0.0,0.0,65,0.00,,,0.00,0,Wunderground v.1.15,2013-10-05 02:46:00,
2013-10-04 19:51:00,56.2,45.8,30.00,South,186,0.0,0.0,68,0.00,,,0.00,0,Wunderground v.1.15,2013-10-05 02:51:00,
2013-10-04 19:56:00,56.0,46.0,30.00,South,186,0.0,0.0,69,0.00,,,0.00,0,Wunderground v.1.15,2013-10-05 02:56:00,
2013-10-04 20:01:00,55.9,46.6,30.00,South,186,1.0,2.0,71,0.00,,,0.00,0,Wunderground v.1.15,2013-10-05 03:01:00,
2013-10-04 20:06:00,56.0,47.5,30.00,South,186,1.0,2.0,73,0.00,,,0.00,0,Wunderground v.1.15,2013-10-05 03:06:00,
2013-10-04 20:11:00,55.7,47.9,30.00,South,187,0.0,1.0,75,0.00,,,0.00,0,Wunderground v.1.15,2013-10-05 03:11:00,
2013-10-04 20:16:00,55.4,48.3,30.00,South,187,0.0,2.0,77,0.00,,,0.00,0,Wunderground v.1.15,2013-10-05 03:16:00,
2013-10-04 20:21:00,55.3,48.2,30.00,SSW,207,2.0,2.0,77,0.00,,,0.00,0,Wunderground v.1.15,2013-10-05 03:21:00,
2013-10-04 20:26:00,55.2,48.5,30.00,SSW,210,1.0,3.0,78,0.00,,,0.00,0,Wunderground v.1.15,2013-10-05 03:26:00,
2013-10-04 20:31:00,55.2,48.5,30.00,SSW,210,1.0,2.0,78,0.00,,,0.00,0,Wunderground v.1.15,2013-10-05 03:31:00,
2013-10-04 20:36:00,55.1,48.4,30.00,SSW,210,1.0,2.0,78,0.00,,,0.00,0,Wunderground v.1.15,2013-10-05 03:36:00,
2013-10-04 20:41:00,55.0,47.9,30.00,SSW,210,0.0,2.0,77,0.00,,,0.00,0,Wunderground v.1.15,2013-10-05 03:41:00,
2013-10-04 20:46:00,54.9,48.2,30.00,SSW,210,0.0,2.0,78,0.00,,,0.00,0,Wunderground v.1.15,2013-10-05 03:46:00,
2013-10-04 20:51:00,54.9,48.2,30.00,SW,214,2.0,3.0,78,0.00,,,0.00,0,Wunderground v.1.15,2013-10-05 03:51:00,
2013-10-04 20:56:00,54.9,48.5,30.00,SW,215,0.0,3.0,79,0.00,,,0.00,0,Wunderground v.1.15,2013-10-05 03:56:00,
2013-10-04 21:01:00,54.7,48.3,29.99,SW,215,0.0,1.0,79,0.00,,,0.00,0,Wunderground v.1.15,2013-10-05 04:01:00,
2013-10-04 21:06:00,54.2,48.2,30.00,SW,215,0.0,1.0,80,0.00,,,0.00,0,Wunderground v.1.15,2013-10-05 04:06:00,
2013-10-04 21:11:00,54.0,48.0,30.00,SW,215,0.0,1.0,80,0.00,,,0.00,0,Wunderground v.1.15,2013-10-05 04:11:00,
2013-10-04 21:16:00,54.0,48.0,30.00,SW,215,0.0,1.0,80,0.00,,,0.00,0,Wunderground v.1.15,2013-10-05 04:16:00,
2013-10-04 21:21:00,53.7,48.0,30.00,SW,215,0.0,1.0,81,0.00,,,0.00,0,Wunderground v.1.15,2013-10-05 04:21:00,
2013-10-04 21:26:00,53.3,47.9,30.00,SW,215,0.0,1.0,82,0.00,,,0.00,0,Wunderground v.1.15,2013-10-05 04:26:00,
2013-10-04 21:31:00,53.3,47.9,30.00,SW,215,1.0,1.0,82,0.00,,,0.00,0,Wunderground v.1.15,2013-10-05 04:31:00,
2013-10-04 21:36:00,53.5,48.5,30.00,SW,215,1.0,1.0,83,0.00,,,0.00,0,Wunderground v.1.15,2013-10-05 04:36:00,
2013-10-04 21:41:00,53.3,48.3,30.00,SW,215,1.0,1.0,83,0.00,,,0.00,0,Wunderground v.1.15,2013-10-05 04:41:00,
2013-10-04 21:46:00,53.1,48.4,30.00,SW,215,0.0,1.0,84,0.00,,,0.00,0,Wunderground v.1.15,2013-10-05 04:46:00,
2013-10-04 21:51:00,53.1,49.3,30.00,SW,215,0.0,1.0,87,0.00,,,0.00,0,Wunderground v.1.15,2013-10-05 04:51:00,
2013-10-04 21:56:00,53.1,49.6,30.01,SW,215,0.0,1.0,88,0.00,,,0.00,0,Wunderground v.1.15,2013-10-05 04:56:00,
2013-10-04 22:01:00,53.2,49.7,30.00,SW,215,0.0,1.0,88,0.00,,,0.00,0,Wunderground v.1.15,2013-10-05 05:01:00,
2013-10-04 22:06:00,53.2,49.7,30.00,SW,215,0.0,1.0,88,0.00,,,0.00,0,Wunderground v.1.15,2013-10-05 05:06:00,
2013-10-04 22:11:00,53.0,49.8,30.01,SW,215,0.0,0.0,89,0.00,,,0.00,0,Wunderground v.1.15,2013-10-05 05:11:00,
2013-10-04 22:16:00,52.8,49.6,30.01,SW,215,0.0,1.0,89,0.00,,,0.00,0,Wunderground v.1.15,2013-10-05 05:16:00,
2013-10-04 22:21:00,52.7,49.5,30.00,SW,215,0.0,0.0,89,0.00,,,0.00,0,Wunderground v.1.15,2013-10-05 05:21:00,
2013-10-04 22:26:00,52.7,49.8,30.00,SW,215,0.0,0.0,90,0.00,,,0.00,0,Wunderground v.1.15,2013-10-05 05:26:00,
2013-10-04 22:31:00,52.6,49.8,30.00,SW,215,0.0,0.0,90,0.00,,,0.00,0,Wunderground v.1.15,2013-10-05 05:31:00,
2013-10-04 22:36:00,52.3,49.5,30.00,SW,215,0.0,1.0,90,0.00,,,0.00,0,Wunderground v.1.15,2013-10-05 05:36:00,
2013-10-04 22:41:00,52.1,49.3,30.00,SW,215,0.0,1.0,90,0.00,,,0.00,0,Wunderground v.1.15,2013-10-05 05:41:00,
2013-10-04 22:46:00,52.3,49.5,30.00,SW,215,0.0,1.0,90,0.00,,,0.00,0,Wunderground v.1.15,2013-10-05 05:46:00,
2013-10-04 22:51:00,52.1,49.3,30.00,SW,215,0.0,1.0,90,0.00,,,0.00,0,Wunderground v.1.15,2013-10-05 05:51:00,
2013-10-04 22:56:00,51.9,49.1,30.00,SW,215,0.0,1.0,90,0.00,,,0.00,0,Wunderground v.1.15,2013-10-05 05:56:00,
2013-10-04 23:01:00,51.7,49.2,30.00,SW,215,0.0,1.0,91,0.00,,,0.00,0,Wunderground v.1.15,2013-10-05 06:01:00,
2013-10-04 23:06:00,51.5,49.0,30.00,SW,215,0.0,1.0,91,0.00,,,0.00,0,Wunderground v.1.15,2013-10-05 06:06:00,
2013-10-04 23:11:00,51.5,49.3,29.99,SW,215,0.0,1.0,92,0.00,,,0.00,0,Wunderground v.1.15,2013-10-05 06:11:00,
2013-10-04 23:16:00,51.4,49.2,29.99,SW,215,0.0,1.0,92,0.00,,,0.00,0,Wunderground v.1.15,2013-10-05 06:16:00,
2013-10-04 23:21:00,51.4,49.4,29.99,SW,215,0.0,1.0,93,0.00,,,0.00,0,Wunderground v.1.15,2013-10-05 06:21:00,
2013-10-04 23:26:00,51.4,49.4,29.99,SW,215,0.0,1.0,93,0.00,,,0.00,0,Wunderground v.1.15,2013-10-05 06:26:00,
2013-10-04 23:31:00,51.4,49.4,29.99,SW,215,0.0,0.0,93,0.00,,,0.00,0,Wunderground v.1.15,2013-10-05 06:31:00,
2013-10-04 23:36:00,51.4,49.4,29.99,SW,215,1.0,1.0,93,0.00,,,0.00,0,Wunderground v.1.15,2013-10-05 06:36:00,
2013-10-04 23:41:00,51.3,49.3,29.99,SW,215,0.0,0.0,93,0.00,,,0.00,0,Wunderground v.1.15,2013-10-05 06:41:00,
2013-10-04 23:46:00,51.1,48.9,29.99,SW,215,0.0,2.0,92,0.00,,,0.00,0,Wunderground v.1.15,2013-10-05 06:46:00,
2013-10-04 23:51:00,51.2,49.0,29.99,SW,215,0.0,1.0,92,0.00,,,0.00,0,Wunderground v.1.15,2013-10-05 06:51:00,
2013-10-04 23:56:00,51.2,48.7,29.98,SE,126,2.0,2.0,91,0.00,,,0.00,0,Wunderground v.1.15,2013-10-05 06:56:00,